Weather History for Whiting Fld NAS, FL

Change the Weather History Date:

Saturday, July 20, 2013

  Actual Average Record
Temperature  
Mean Temperature 78 °F -  
Max Temperature 84 °F 87 °F 102 °F (2000)
Min Temperature 71 °F 70 °F 70 °F (2004)
Cooling Degree Days 12    
Growing Degree Days 28 (Base 50)    
Moisture  
Dew Point 72 °F    
Average Humidity 88    
Maximum Humidity 94    
Minimum Humidity 74    
Precipitation  
Precipitation 1.08 in - - ()
Sea Level Pressure  
Sea Level Pressure 29.99 in    
Wind  
Wind Speed 4 mph (South)    
Max Wind Speed 15 mph    
Max Gust Speed 21 mph    
Visibility 6 miles    
Events Fog , Thunderstorm    
Averages and records for this station are not official NWS values.
T = Trace of Precipitation, MM = Missing Value Source: NWS Daily Summary

Daily Weather History Graph

Daily Weather History Graph

Search for Another Location

Airport:

Trip Planner

Search our weather history database for the weather conditions in past years. The results will help you decide how hot, cold, wet, or windy it might be!

Date:

Astronomy

Jul. 20, 2013 Rise Set
Actual Time 5:58 AM CDT 7:50 PM CDT
Civil Twilight 5:31 AM CDT 8:16 PM CDT
Nautical Twilight 4:59 AM CDT 8:49 PM CDT
Astronomical Twilight 4:24 AM CDT 9:23 PM CDT
Moon 5:53 PM CDT (7/20) 3:37 AM CDT (7/20)
Length of Visible Light 14h 45m
Length of Day
13h 51m
Waxing Gibbous, 94% of the Moon is Illuminated
Jul 20
Waxing Gibbous
Jul 22
Full
Jul 29
Last Quarter
Aug 6
New
Aug 14
First Quarter

Hourly Weather History & Observations

Time (CDT) Temp. Heat Index Dew Point Humidity Pressure Visibility Wind Dir Wind Speed Gust Speed Precip Events Conditions
12:56 AM 75.0 °F - 71.1 °F 87% 29.96 in 10.0 mi East 3.5 mph - N/A   Clear
1:51 AM 75.2 °F - 71.6 °F 89% 29.99 in 10.0 mi East 5.8 mph - N/A Thunderstorm Thunderstorm
1:56 AM 75.0 °F - 71.1 °F 87% 29.95 in 10.0 mi ESE 5.8 mph - N/A Thunderstorm Thunderstorm
2:07 AM 73.4 °F - 71.6 °F 94% 29.99 in 10.0 mi ESE 4.6 mph - N/A   Clear
2:15 AM 73.4 °F - 71.6 °F 94% 29.99 in 10.0 mi Calm Calm - N/A Thunderstorm Thunderstorm
2:36 AM 73.4 °F - 71.6 °F 94% 30.00 in 10.0 mi SE 3.5 mph - N/A   Scattered Clouds
2:56 AM 73.9 °F - 71.1 °F 91% 29.94 in 10.0 mi East 4.6 mph - N/A   Scattered Clouds
3:24 AM 75.2 °F - 71.6 °F 89% 29.98 in 10.0 mi ESE 3.5 mph - N/A   Mostly Cloudy
3:34 AM 75.2 °F - 71.6 °F 89% 29.98 in 10.0 mi East 3.5 mph - N/A   Scattered Clouds
3:56 AM 75.0 °F - 71.1 °F 87% 29.93 in 10.0 mi Calm Calm - N/A   Mostly Cloudy
4:09 AM 75.2 °F - 71.6 °F 89% 29.98 in 10.0 mi Calm Calm - N/A Thunderstorm Thunderstorm
4:25 AM 75.2 °F - 71.6 °F 89% 29.98 in 10.0 mi Calm Calm - N/A   Clear
4:56 AM 73.9 °F - 71.1 °F 91% 29.94 in 10.0 mi ENE 3.5 mph - N/A   Clear
5:42 AM 73.4 °F - 71.6 °F 94% 30.00 in 10.0 mi Calm Calm - N/A Thunderstorm Thunderstorm
5:56 AM 73.9 °F - 71.1 °F 91% 29.96 in 10.0 mi North 3.5 mph - N/A Thunderstorm Thunderstorm
6:21 AM 73.4 °F - 69.8 °F 88% 30.02 in 4.0 mi SW 12.7 mph 17.3 mph 0.02 in Thunderstorm Mostly Cloudy
6:29 AM 73.4 °F - 68.0 °F 83% 30.02 in 1.8 mi SW 5.8 mph 18.4 mph 0.05 in Thunderstorm Unknown
6:43 AM 73.4 °F - 69.8 °F 88% 30.02 in 3.0 mi Calm Calm - 0.09 in Thunderstorm Overcast
6:56 AM 73.0 °F - 69.1 °F 87% 29.97 in 3.0 mi Calm Calm - 0.11 in Thunderstorm Overcast
7:44 AM 71.6 °F - 69.8 °F 94% 30.01 in 3.0 mi NNE 3.5 mph - 0.06 in   Overcast
7:56 AM 73.0 °F - 70.0 °F 90% 29.96 in 6.0 mi Calm Calm - 0.07 in   Overcast
8:56 AM 75.0 °F - 71.1 °F 87% 29.98 in 10.0 mi ESE 4.6 mph - N/A   Mostly Cloudy
9:39 AM 75.2 °F - 71.6 °F 89% 30.04 in 10.0 mi ESE 5.8 mph - N/A   Overcast
9:56 AM 75.9 °F - 72.0 °F 87% 29.99 in 10.0 mi East 4.6 mph - N/A   Overcast
10:56 AM 77.0 °F - 73.0 °F 88% 29.99 in 10.0 mi ESE 5.8 mph - N/A   Overcast
11:06 AM 77.0 °F - 73.4 °F 89% 30.03 in 5.0 mi SE 5.8 mph - N/A   Overcast
11:21 AM 78.8 °F - 73.4 °F 83% 30.03 in 10.0 mi SE 5.8 mph - N/A   Overcast
11:38 AM 78.8 °F - 75.2 °F 89% 30.03 in 10.0 mi SSE 3.5 mph - N/A Thunderstorm Thunderstorm
11:56 AM 79.0 °F - 75.9 °F 90% 29.98 in 10.0 mi ESE 3.5 mph - N/A Thunderstorm Thunderstorm
12:18 PM 78.8 °F - 75.2 °F 89% 30.02 in 7.0 mi ESE 5.8 mph - 0.01 in   Overcast
12:30 PM 77.0 °F - 69.8 °F 78% 30.02 in 8.0 mi West 4.6 mph - 0.01 in Thunderstorm Thunderstorm
12:35 PM 75.2 °F - 69.8 °F 83% 30.02 in 1.8 mi West 3.5 mph - 0.04 in Thunderstorm Unknown
12:42 PM 75.2 °F - 71.6 °F 89% 30.03 in 1.0 mi WSW 5.8 mph - 0.10 in   Overcast
12:49 PM 75.2 °F - 71.6 °F 89% 30.02 in 1.2 mi SSW 5.8 mph - 0.17 in Thunderstorm Overcast
12:56 PM 75.0 °F - 72.0 °F 90% 29.98 in 0.8 mi SSE 6.9 mph - 0.24 in Thunderstorm Overcast
1:03 PM 75.2 °F - 73.4 °F 94% 30.02 in 1.0 mi SSW 3.5 mph - 0.06 in Thunderstorm Overcast
1:12 PM 77.0 °F - 75.2 °F 94% 30.01 in 3.0 mi Calm Calm - 0.07 in Thunderstorm Overcast
1:39 PM 77.0 °F - 75.2 °F 94% 30.01 in 6.0 mi Calm Calm - 0.08 in Thunderstorm Overcast
1:45 PM 77.0 °F - 75.2 °F 94% 30.01 in 1.8 mi West 11.5 mph - 0.13 in Thunderstorm Overcast
1:56 PM 73.9 °F - 71.1 °F 91% 29.96 in 0.8 mi West 15.0 mph 20.7 mph 0.29 in Thunderstorm Overcast
2:03 PM 73.4 °F - 69.8 °F 88% 30.00 in 0.5 mi West 11.5 mph - 0.18 in Fog , Thunderstorm Unknown
2:15 PM 75.2 °F - 73.4 °F 94% 29.99 in 1.0 mi SW 6.9 mph - 0.32 in   Overcast
2:26 PM 77.0 °F - 75.2 °F 94% 29.98 in 3.0 mi WSW 6.9 mph - 0.33 in   Overcast
2:56 PM 79.0 °F - 77.0 °F 94% 29.94 in 4.0 mi South 5.8 mph - 0.36 in   Overcast
3:56 PM 80.1 °F 86.4 °F 78.1 °F 94% 29.91 in 10.0 mi SW 3.5 mph - 0.01 in   Mostly Cloudy
4:56 PM 82.0 °F 88.6 °F 75.0 °F 79% 29.91 in 10.0 mi SSW 6.9 mph - N/A   Scattered Clouds
5:30 PM 82.4 °F 89.5 °F 75.2 °F 79% 29.95 in 10.0 mi SSW 9.2 mph - N/A   Mostly Cloudy
5:53 PM 82.4 °F 89.5 °F 75.2 °F 79% 29.95 in 10.0 mi SSW 6.9 mph - N/A   Partly Cloudy
5:56 PM 84.0 °F 91.9 °F 75.0 °F 74% 29.90 in 10.0 mi SSW 8.1 mph - N/A   Partly Cloudy
6:56 PM 81.0 °F 86.2 °F 73.9 °F 79% 29.92 in 10.0 mi South 6.9 mph - N/A   Clear
7:56 PM 79.0 °F - 73.9 °F 84% 29.93 in 10.0 mi South 5.8 mph - N/A   Clear
8:05 PM 78.8 °F - 73.4 °F 83% 29.97 in 10.0 mi South 5.8 mph - N/A   Partly Cloudy
8:56 PM 78.1 °F - 73.0 °F 84% 29.94 in 10.0 mi Calm Calm - N/A   Clear
9:20 PM 78.8 °F - 73.4 °F 83% 29.99 in 2.5 mi Calm Calm - N/A   Haze
9:27 PM 77.0 °F - 73.4 °F 89% 30.00 in 6.0 mi Calm Calm - N/A   Clear
9:38 PM 78.8 °F - 73.4 °F 83% 30.00 in 1.8 mi Calm Calm - N/A   Haze
9:56 PM 77.0 °F - 73.0 °F 88% 29.96 in 1.0 mi SW 3.5 mph - N/A   Clear
10:04 PM 77.0 °F - 73.4 °F 89% 30.01 in 0.8 mi SSW 3.5 mph - N/A   Clear
10:40 PM 77.0 °F - 71.6 °F 83% 30.03 in 1.8 mi Calm Calm - N/A   Haze
10:45 PM 75.2 °F - 71.6 °F 89% 30.03 in 3.0 mi Calm Calm - N/A   Clear
10:56 PM 75.9 °F - 72.0 °F 87% 29.99 in 9.0 mi SSE 3.5 mph - N/A   Clear
11:23 PM 75.2 °F - 71.6 °F 89% 30.03 in 1.8 mi SSW 3.5 mph - N/A   Clear
11:36 PM 75.2 °F - 71.6 °F 89% 30.03 in 3.0 mi Calm Calm - N/A   Clear
11:48 PM 75.2 °F - 71.6 °F 89% 30.03 in 1.8 mi SSW 3.5 mph - N/A   Clear
11:56 PM 75.9 °F - 72.0 °F 87% 29.99 in 1.0 mi South 3.5 mph - N/A   Clear